Torna al catalogo

SL-3 R/B

AttivoSSO
NORAD 18961·ROCKET BODY·🇷🇺 Russia

Lanciato Mar 17, 1988 da Baikonur Cosmodrome

Loading…

Prossimi Passaggi (prossime 24 ore)

TLE

AggiornatoSource: Space-Track

Epoca: Sep 14, 2026, 10:27 UTC

1 18961U 88021B   26257.43556220  .00000339  00000-0  25313-3 0  9995
2 18961  98.8796 310.0251 0053641 284.2189  85.9954 14.00840172968076

Traccia SL-3 R/B in tempo reale con AllMySat

Download on the App Store